sat.trackr.live / text

‹ back to catalog

STARLINK-4458

NORAD 53668 · 2022-105W

PAYLOAD ACTIVE UNKNOWN

§ Identity

Operator
Country
US
Launch date
2022-08-31
Launch site
AFWTR
Launch vehicle
Mass (kg)
RCS (m²)

Purposes: comms

External: N2YO · Heavens-Above · Gunter

§ Orbital elements

Epoch: 2026-09-20T22:00:03.000096Z

Period
93.06 min
Inclination
97.4994°
Eccentricity
0.0001719
Mean motion
15.47440106 rev/d
Perigee alt
423.0 km
Apogee alt
425.4 km
Semi-major
6,802.4 km
B*
2.3454e-2
RAAN
152.3912°
Arg perigee
83.9254°
Mean anomaly
217.4942°
Rev number
572

§ Raw data

STARLINK-44581 53668U 22105W   26263.91670139  .01334558  00000+0  23454-1 0  99902 53668  97.4994 152.3912 0001719  83.9254 217.4942 15.47440106  5729

JSON: /api/v1/satellites/53668 · /tle

For live sub-satellite position, see the globe view (requires WebGL).

§ Visibility from observer

Set your observer location to see the next 7 days of passes ≥ 10°. The values pass through the URL so the page stays shareable.

No JS? Fill the form by hand. The geolocation button needs JavaScript.